Millville, NJ

3:00 PM EST on December 05, 2019 (GMT -0500)
Millville Municipal

Weather History for KMIV - October, 2019

Change the Weather History Date:

Saturday, October 5, 2019

  Actual Average Record
Temperature  
Mean Temperature 54 °F -  
Max Temperature 64 °F 71 °F 87 °F (1967)
Min Temperature 45 °F 49 °F 33 °F (1996)
Degree Days  
Heating Degree Days 11    
Growing Degree Days 4 (Base 50)    
Moisture  
Dew Point 40 °F    
Average Humidity 59    
Maximum Humidity 75    
Minimum Humidity 39    
Precipitation  
Precipitation 0.00 in - - ()
Sea Level Pressure  
Sea Level Pressure 30.38 in    
Wind  
Wind Speed 9 mph (NE)    
Max Wind Speed 16 mph    
Max Gust Speed 21 mph    
Visibility 10 miles    
Events      
Averages and records for this station are not official NWS values.
T = Trace of Precipitation, MM = Missing Value Source: NWS Daily Summary

Daily Weather History Graph

Daily Weather History Graph

Search for Another Location

Airport or City:

Astronomy

Oct. 05, 2019 Rise Set
Actual Time 6:59 AM EDT 6:36 PM EDT
Civil Twilight 6:33 AM EDT 7:03 PM EDT
Nautical Twilight 6:02 AM EDT 7:34 PM EDT
Astronomical Twilight 5:30 AM EDT 8:05 PM EDT
Moon 2:21 PM EDT 11:59 PM EDT
Length of Visible Light 12h 30m
Length of Day
11h 36m
Waxing Crescent, 50% of the Moon is Illuminated
Oct 5
Waxing Crescent
Oct 5
First Quarter
Oct 13
Full
Oct 21
Last Quarter
Oct 27
New

Hourly Weather History & Observations

Time (EDT) Temp. Windchill Dew Point Humidity Pressure Visibility Wind Dir Wind Speed Gust Speed Precip Events Conditions
12:54 AM 48.9 °F - 37.9 °F 66% 30.34 in 10.0 mi North 10.4 mph - N/A   Clear
1:54 AM 48.0 °F - 37.0 °F 66% 30.35 in 10.0 mi North 9.2 mph - N/A   Clear
2:54 AM 48.9 °F - 37.0 °F 64% 30.35 in 10.0 mi NNE 12.7 mph - N/A   Clear
3:54 AM 48.0 °F - 37.0 °F 66% 30.36 in 10.0 mi NNE 12.7 mph 20.7 mph N/A   Clear
4:54 AM 46.9 °F - 36.0 °F 66% 30.37 in 10.0 mi North 6.9 mph - N/A   Clear
5:54 AM 46.0 °F 41.0 °F 36.0 °F 68% 30.37 in 10.0 mi NNE 10.4 mph - N/A   Clear
6:54 AM 45.0 °F 40.1 °F 36.0 °F 71% 30.39 in 10.0 mi NNE 9.2 mph - N/A   Clear
7:54 AM 46.9 °F - 36.0 °F 66% 30.40 in 10.0 mi NNE 9.2 mph - N/A   Clear
8:54 AM 51.1 °F - 37.0 °F 59% 30.42 in 10.0 mi NNE 10.4 mph - N/A   Clear
9:54 AM 55.0 °F - 37.9 °F 53% 30.44 in 10.0 mi NE 16.1 mph - N/A   Clear
10:54 AM 57.9 °F - 37.9 °F 47% 30.44 in 10.0 mi ENE 11.5 mph - N/A   Clear
11:54 AM 59.0 °F - 39.0 °F 48% 30.43 in 10.0 mi ENE 11.5 mph - N/A   Partly Cloudy
12:54 PM 61.0 °F - 37.9 °F 42% 30.43 in 10.0 mi East 10.4 mph - N/A   Scattered Clouds
1:54 PM 62.1 °F - 37.0 °F 39% 30.40 in 10.0 mi ENE 8.1 mph - N/A   Scattered Clouds
2:54 PM 63.0 °F - 37.9 °F 40% 30.38 in 10.0 mi East 8.1 mph - N/A   Clear
3:54 PM 63.0 °F - 39.0 °F 41% 30.38 in 10.0 mi East 9.2 mph - N/A   Clear
4:54 PM 61.0 °F - 39.9 °F 46% 30.36 in 10.0 mi ESE 8.1 mph - N/A   Partly Cloudy
5:54 PM 57.9 °F - 42.1 °F 56% 30.37 in 10.0 mi East 6.9 mph - N/A   Partly Cloudy
6:54 PM 55.0 °F - 43.0 °F 64% 30.36 in 10.0 mi East 5.8 mph - N/A   Mostly Cloudy
7:54 PM 55.9 °F - 44.1 °F 64% 30.36 in 10.0 mi East 4.6 mph - N/A   Overcast
8:54 PM 55.9 °F - 45.0 °F 67% 30.36 in 10.0 mi ENE 5.8 mph - N/A   Overcast
9:54 PM 55.9 °F - 46.0 °F 69% 30.35 in 10.0 mi NE 4.6 mph - N/A   Overcast
10:54 PM 54.0 °F - 46.0 °F 75% 30.35 in 10.0 mi East 3.5 mph - N/A   Overcast
11:54 PM 55.0 °F - 46.9 °F 74% 30.34 in 10.0 mi NE 3.5 mph - N/A   Overcast